SCOUT X-4 DEB, 3750

Orbit data source: Space-Track

SCOUT X-4 DEB, 3750 is space debris in LEO originally from a launch on Thu, 19 Dec 1963 UTC launched from the Air Force Western Test Range (AFWTR). Debris objects in space refer to the collection of defunct objects orbiting the Earth. Examples of debris include non-operational satellites, rocket bodies, and fragments generated from explosions, collisions, or faulty payload assembly.

Loading next visibility...
Identifier
3750, 1963-053J
Orbit
LEO
Country
Flag of USUS
Related business
Manufacturer
Unknown
Mission
Spacecraft
Bus & Motor
Unknown
Mass
Unknown
Launch date (UTC)
1963-12-19 (62 years ago)
Launch vehicle
Unknown
Launch site
Air Force Western Test Range (AFWTR)
Object type
Payload
Rocket body
Debris
Shape & HBR
Unknown shape, 0.1 m
Radar Cross Section
Small (<0.1 m²)

Expand to show TLE details & history
Last TLE update: 6 hours ago

TLE from 6 hours ago
0 SCOUT X-4 DEB
1 03750U 63053J   25294.60830473  .00026857  00000-0  33485-2 0  9998
2 03750  78.5731   9.1275 0185762 328.1436  30.8626 14.70805608773267
Epoch: 2025-10-21T14:35Z
TLE epoch observation values (Epoch: 2025-10-21T14:35:57.528Z)
Latitude
-0.00001°
Longitude
119.84398°
Altitude
549.809 km
Speed
7.647 km/s
True Right ascension
00h 36m 30s
True Declination
0° 00' 00"
Sunlit
Object was in full shadow at epoch
Visualization orbit readout
Latitude
Unknown
Longitude
Unknown
Altitude
Unknown
Speed
Unknown
Apparent Right ascension
Unknown
Apparent Declination
Unknown
Sunlit
N/A
Visualization observer readout
Local Sidereal Time
15:57:59
Azimuth
Unknown
Elevation
Unknown
Doppler factor
Unknown
Orbital elements
Apogee altitude
786.403 km
Perigee altitude
525.077 km
Semi-major axis
7,033.877 km
Eccentricity
0.01858
Inclination
78.5731°
RAAN
9.1275°
Arg. of periapsis
328.1436°
True anomaly
31.97669°
Mean anomaly
30.8626°
Eccentric anomaly
31.41741°
Mean motion
3.67918 °/min
Orbital period
97.85 mins
BSTAR
0.0033485
Loading maneuver chart data...
Computing Atmospheric mass density...
Loading historical data...
Loading historical data...
Loading historical data...
Loading historical data...
Loading historical data...
Loading historical data...
Loading historical data...

Documentation

Showing up to 5 results
|